Location: Joplin, MO
(37.0842°N, 94.5133°W)
Time: 14:05:39
(UTC+02:00)

Transit 4A - Visible Passes

Search period start: 30 March 2023 00:00
Search period end: 09 April 2023 00:00
Orbit: 868 x 976 km, 66.8° (Epoch: 29 March)

Date Brightness Start Highest point End Pass type
(mag) Time Alt. Az. Time Alt. Az. Time Alt. Az.
30 Mar 10.0 12:01:07 10° SSE 12:05:21 21° ESE 12:09:36 10° ENE visible
31 Mar 9.3 12:09:12 10° S 12:14:18 33° ESE 12:19:29 10° NE visible
01 Apr 8.5 12:18:31 14° S 12:23:20 52° ESE 12:29:01 10° NE visible
02 Apr 7.8 12:28:15 20° SSW 12:32:25 80° ESE 12:38:20 10° NNE visible
03 Apr 10.0 10:54:19 14° ESE 10:55:59 15° ESE 10:59:16 10° ENE visible
03 Apr 7.8 12:37:51 23° SW 12:41:36 68° WNW 12:47:30 10° NNE visible
04 Apr 9.4 11:03:48 23° ESE 11:04:53 25° ESE 11:09:32 10° NE visible
04 Apr 8.2 12:47:20 21° WSW 12:50:52 45° WNW 12:56:32 10° NNE visible
05 Apr 8.7 11:13:13 37° SE 11:13:52 38° ESE 11:19:16 10° NE visible
05 Apr 8.7 12:56:44 17° WSW 13:00:13 31° NW 13:05:26 10° N visible
06 Apr 8.0 11:22:30 59° SE 11:22:55 60° ESE 11:28:43 10° NE visible
06 Apr 9.2 13:06:01 13° W 13:09:40 22° NW 13:14:09 10° N visible
07 Apr 7.6 11:31:45 82° SW 11:32:02 89° WNW 11:37:59 10° NNE visible
07 Apr 9.6 13:15:56 10° WNW 13:19:14 15° NW 13:22:35 10° N visible
08 Apr 10.1 09:57:24 16° E 09:57:24 16° E 09:59:21 10° ENE visible
08 Apr 7.8 11:40:55 58° WNW 11:41:14 59° WNW 11:47:06 10° NNE visible
08 Apr 9.9 13:27:47 10° NW 13:28:54 10° NW 13:30:01 10° NNW visible
